Weather observations for the past three days for
Deering, Deering/New Airport
Metric (Imperial)
Date Time (akdt) Wind (kph) Vis. (km) Weather Sky Cond. Temperature (ºC) Relative Humidity Wind Chill (°C) Heat Index (°C) Pressure Precipitation (cm)
Air Dwpt 6 hour altimeter (cm) sea level (mb) 1 hr 3 hr 6 hr
Max. Min.
21 07:53 W 17 16.09 Fair CLR 7.2 5.6 90% 5 76.15 1015.1
21 06:53 SW 15 16.09 Fair CLR 6.1 5 93% 3 76.15 1015.1
21 05:53 SW 9 16.09 Fair CLR 5.6 5 96% 4 76.17 1015.5
21 04:53 SW 9 16.09 Fair CLR 5.6 5 96% 4 76.17 1015.4
21 03:53 S 9 16.09 Fair CLR 5.6 5 10.6 5 96% 4 76.17 1015.6
21 02:53 S 13 16.09 Fair CLR 6.1 5 93% 4 76.17 1015.6
21 01:53 S 11 16.09 Fair CLR 7.8 6.1 89% 6 76.15 1015.2
20 23:53 SW 11 16.09 Fair CLR 9.4 6.1 80% 8 76.15 1015.2
20 22:53 W 15 16.09 Fair CLR 10.6 6.1 74% 76.15 1015.3
20 21:53 W 15 16.09 Fair CLR 10.6 6.1 14.4 10.6 74% 76.17 1015.5
20 19:53 NW 11 16.09 Fair CLR 11.7 7.2 74% 76.2 1015.7
20 18:53 NW 11 16.09 Fair CLR 12.2 7.8 75% 76.23 1016.1
20 17:53 NW 20 16.09 Fair CLR 12.2 7.2 72% 76.23 1016.2
20 16:53 NW 24 14.48 Fair CLR 14.4 6.7 60% 76.23 1016.3
20 15:53 NW 17 16.09 Fair CLR 13.3 6.1 13.9 9.4 62% 76.28 1017.0
20 14:53 NW 19 16.09 Fair CLR 13.3 5 57% 76.3 1017.2
20 13:53 NW 15 14.48 Fair CLR 12.8 3.9 55% 76.33 1017.5
20 12:53 W 15 16.09 Fair CLR 11.1 3.3 59% 76.33 1017.5
20 11:53 NW 13 16.09 Mostly Cloudy BKN060 11.1 3.3 59% 76.33 1017.7
20 10:53 SW 11 16.09 Fair CLR 10.6 3.9 64% 76.35 1017.9
20 09:53 SW 11 16.09 A Few Clouds FEW080 10 4.4 10 5 68% 9 76.38 1018.2
20 07:53 W 15 16.09 Overcast OVC080 7.8 3.9 77% 6 76.38 1018.1
20 06:53 W 11 16.09 Overcast SCT045 OVC075 8.3 3.9 74% 7 76.35 1018.0
20 05:53 SW 15 16.09 Overcast OVC075 6.1 3.3 82% 3 76.35 1017.8
20 04:53 SW 11 16.09 Overcast OVC075 5.6 3.3 85% 3 76.35 1018.0
20 03:53 SW 13 16.09 Overcast OVC075 5.6 3.9 8.9 5 89% 3 76.35 1017.8
20 02:53 SW 7 16.09 Overcast OVC070 6.1 4.4 89% 5 76.35 1017.8
20 01:53 W 11 16.09 Overcast OVC070 6.1 4.4 89% 4 76.33 1017.6
20 00:53 W 7 16.09 Overcast OVC070 7.2 5.6 90% 6 76.33 1017.6
19 23:53 SW 6 16.09 Overcast BKN046 OVC055 7.8 5.6 86% 76.3 1017.2
19 22:53 Calm 16.09 Overcast OVC075 8.3 5.6 83% 76.3 1017.2
19 21:53 NW 6 16.09 Overcast SCT048 OVC080 8.3 5.6 10.6 7.2 83% 76.28 1016.8
19 20:53 W 6 16.09 Overcast OVC085 8.3 6.1 86% 76.25 1016.5
19 19:53 NE 6 16.09 Overcast OVC055 10 6.7 80% 76.23 1016.2
19 18:53 N 11 16.09 Mostly Cloudy BKN050 BKN080 10.6 6.7 77% 76.2 1015.9
19 17:53 NE 11 16.09 Overcast OVC050 8.9 6.7 86% 7 76.23 1016.1
19 16:53 NE 9 16.09 Overcast OVC050 8.3 6.1 86% 7 76.2 1016.1
19 15:53 NE 17 16.09 Overcast FEW050 OVC070 7.8 5 8.3 3.9 83% 5 76.2 1016.0
19 14:53 NE 15 16.09 Overcast OVC065 7.8 5 83% 6 76.2 1015.8
19 13:53 NE 13 16.09 Overcast FEW070 OVC090 6.7 3.9 83% 4 76.2 1015.8
19 12:53 N 13 16.09 Partly Cloudy SCT070 6.1 3.9 86% 4 76.17 1015.5
19 11:53 N 13 16.09 Overcast OVC006 5 3.3 89% 2 76.15 1015.2
19 10:53 NE 15 16.09 Overcast OVC006 4.4 2.8 89% 1 76.15 1015.1
19 09:53 NE 9 16.09 Overcast OVC007 4.4 2.8 4.4 1.7 89% 2 76.1 1014.7
19 08:53 Calm 16.09 Overcast OVC008 3.9 2.2 89% 76.07 1014.2
19 07:53 Calm 16.09 Overcast OVC007 2.8 1.7 93% 76.05 1013.9
19 06:53 Calm 16.09 Overcast BKN006 OVC011 1.7 1.7 100% 76.05 1013.9
19 05:53 Calm 16.09 Overcast OVC007 1.7 0.6 93% 76.02 1013.7
19 04:53 SW 9 16.09 Overcast OVC013 1.7 0.6 93% -1 76 1013.2
19 03:53 SW 6 16.09 Overcast FEW009 OVC015 1.7 0.6 3.9 1.1 93% 75.95 1012.6
19 02:53 W 9 16.09 Overcast OVC009 1.7 0.6 93% -1 75.95 1012.6
19 01:53 W 9 16.09 Overcast BKN009 OVC023 1.7 0.6 93% -1 75.92 1012.1
19 00:53 W 11 16.09 A Few Clouds FEW095 2.2 0.6 89% -1 75.87 1011.5
18 23:53 W 13 16.09 Mostly Cloudy BKN010 BKN100 2.2 0.6 89% -1 75.84 1011.2
18 22:53 NW 15 16.09 Mostly Cloudy BKN009 BKN100 3.3 1.1 86% 0 75.82 1010.8
18 21:53 W 20 16.09 Overcast OVC008 3.3 1.1 5 2.8 86% -1 75.79 1010.5
18 20:53 W 13 16.09 Overcast OVC008 2.8 1.1 89% -0 75.74 1009.9
18 19:53 NW 17 16.09 Mostly Cloudy BKN009 3.9 1.1 82% 0 75.74 1009.9
18 18:53 W 19 16.09 Partly Cloudy SCT009 SCT075 3.9 1.1 82% 0 75.77 1010.1
18 17:53 W 22 16.09 Overcast BKN009 OVC065 3.9 1.1 82% -0 75.77 1010.0
18 16:53 W 20 16.09 Overcast FEW010 OVC075 3.3 0.6 83% -1 75.77 1010.1
18 15:53 W 20 16.09 Mostly Cloudy BKN070 3.9 1.1 5 1.7 82% 0 75.77 1010.1
18 14:53 W 20 16.09 Mostly Cloudy BKN075 3.9 1.1 82% 0 75.77 1010.2
18 13:53 W 17 16.09 Overcast OVC075 3.9 1.1 82% 0 75.77 1010.2
18 12:53 W 13 16.09 Overcast BKN065 BKN080 OVC100 3.9 2.2 89% 1 75.79 1010.4
18 11:53 W 19 16.09 Overcast OVC009 2.8 1.7 93% -1 75.79 1010.6
18 10:53 W 24 16.09 Overcast BKN004 OVC060 1.7 0.6 93% -3 75.79 1010.4
Date Time (akdt) Wind (kph) Vis. (km) Weather Sky Cond. Air Dwpt Max. Min. Relative Humidity Wind Chill (°C) Heat Index (°C) altimeter (cm) sea level (mb) 1 hr 3 hr 6 hr
6 hour
Temperature (ºC) Pressure Precipitation (cm)